Location: Newark
(40.0251°N, 85.2247°W)
Time: 15:42:44
(UTC+00:00)

N. Korean satellite - Visible Passes

Search period start: 10 December 2019 00:00
Search period end: 20 December 2019 00:00
Orbit: 456 x 506 km, 97.2° (Epoch: 09 December)

Date Brightness Start Highest point End Pass type
(mag) Time Alt. Az. Time Alt. Az. Time Alt. Az.
10 Dec 7.2 11:20:44 10° NNE 11:24:13 57° E 11:27:37 10° S visible
10 Dec 9.2 23:28:56 10° SSW 23:31:59 24° W 23:35:04 10° NW visible
11 Dec 8.9 10:55:44 10° NE 10:58:42 25° E 11:01:37 10° SSE visible
11 Dec 7.6 23:02:52 10° S 23:06:29 51° W 23:10:06 10° NNW visible
12 Dec 9.9 10:31:39 10° ENE 10:33:05 12° E 10:34:31 10° ESE visible
12 Dec 7.1 12:03:25 10° N 12:06:38 34° WNW 12:09:47 10° SW visible
13 Dec 6.3 11:37:46 10° N 11:41:16 80° WNW 11:44:42 10° SSW visible
13 Dec 9.9 23:46:59 10° SW 23:49:10 15° W 23:51:22 10° NW visible
14 Dec 7.7 11:12:27 10° NNE 11:15:49 42° E 11:19:06 10° S visible
14 Dec 8.8 23:20:18 10° SSW 23:23:36 30° W 23:26:53 10° NNW visible
15 Dec 9.3 10:47:38 10° NE 10:50:15 20° E 10:52:50 10° SE visible
15 Dec 7.7 12:20:53 10° NNW 12:23:34 21° WNW 12:26:12 10° WSW visible
15 Dec 7.1 22:54:27 10° S 22:58:07 67° W 23:01:46 10° NNW visible
16 Dec 6.7 11:54:56 10° N 11:58:16 44° WNW 12:01:32 10° SSW visible
17 Dec 6.5 11:29:23 10° NNE 11:32:52 78° E 11:36:17 10° S visible
17 Dec 9.7 23:38:06 10° SW 23:40:45 19° W 23:43:23 10° NW visible
18 Dec 8.3 11:04:12 10° NNE 11:07:23 32° E 11:10:29 10° SSE visible
18 Dec 8.3 23:11:45 10° SSW 23:15:12 38° W 23:18:38 10° NNW visible
19 Dec 9.6 10:39:39 10° NE 10:41:47 15° E 10:43:54 10° SE visible
19 Dec 7.4 12:12:16 10° NNW 12:15:12 26° WNW 12:18:06 10° SW visible
19 Dec 6.7 22:46:04 10° SSE 22:49:44 87° W 22:53:22 10° NNW visible
